Overview Statistics Trail Chart Weather Telemetry Raw packets
 

This is the latest recevied weather packets stored in our database for station/object DO3MLA-13. If no packets are shown the sender has not sent any weather packets the latest 10 day(s).

<< 7 8 9 10 11 12 13 >>
Time Temp. Humidity Pressure Rain* Wind** Luminosity Snow
1788544203 27.78° C 100% 996 hPa 0 mm - 4 W/m² -
1788543598 27.78° C 100% 996 hPa 0 mm - 7 W/m² -
1788542993 28.89° C 100% 996 hPa 0 mm - 24 W/m² -
1788542389 28.89° C 100% 996 hPa 0 mm - 34 W/m² -
1788541784 28.89° C 100% 996 hPa 0 mm - 42 W/m² -
1788541180 29.44° C 100% 996 hPa 0 mm - 54 W/m² -
1788540575 30° C 100% 996 hPa 0 mm - 83 W/m² -
1788539970 30.56° C 100% 996 hPa 0 mm - 83 W/m² -
1788539366 29.44° C 100% 996 hPa 0 mm - 72 W/m² -
1788538761 29.44° C 100% 996 hPa 0 mm - 59 W/m² -
1788538156 29.44° C 100% 996 hPa 0 mm - 81 W/m² -
1788537552 29.44° C 100% 996 hPa 0 mm - 48 W/m² -
1788536947 29.44° C 100% 996 hPa 0 mm - 58 W/m² -
1788536342 29.44° C 100% 996 hPa 0 mm - 63 W/m² -
1788535738 30° C 100% 996 hPa 0 mm - 194 W/m² -
1788535133 30.56° C 100% 996 hPa 0 mm - 122 W/m² -
1788534528 30° C 100% 996 hPa 0 mm - 67 W/m² -
1788533924 30° C 100% 996 hPa 0 mm - 100 W/m² -
1788533319 30° C 100% 996 hPa 0 mm - 101 W/m² -
1788532714 29.44° C 100% 996 hPa 0 mm - 107 W/m² -
1788532110 30° C 100% 996 hPa 0 mm - 80 W/m² -
1788531505 30.56° C 100% 996 hPa 0 mm - 242 W/m² -
1788530900 30.56° C 100% 996 hPa 0 mm - 305 W/m² -
1788530296 30.56° C 100% 996 hPa 0 mm - 325 W/m² -
1788529691 30° C 100% 996 hPa 0 mm - 168 W/m² -

* Rain latest hour (hover to see other rain measurements)
** Current wind speed in m/s (hover to see current wind gust speed)